Time,TemperatureF,DewpointF,PressureIn,WindDirection,WindDirectionDegrees,WindSpeedMPH,WindSpeedGustMPH,Humidity,HourlyPrecipIn,Conditions,Clouds,dailyrainin,SoftwareType,DateUTC
2013-03-03 05:40:00,38.0,16.4,29.88,SSE,158,0.0,4.0,41,0.00,,---,0.00,VWS V14.01,2013-03-03 12:40:00,
2013-03-03 05:52:00,38.0,16.4,29.88,SSE,158,0.0,4.0,41,0.00,,---,0.00,VWS V14.01,2013-03-03 12:52:00,
2013-03-03 05:55:00,38.8,16.0,29.88,SSE,148,2.0,5.0,39,0.00,,---,0.00,VWS V14.01,2013-03-03 12:55:00,
2013-03-03 06:00:00,39.3,16.4,29.88,SSE,148,0.0,4.0,39,0.00,,---,0.00,VWS V14.01,2013-03-03 13:00:00,
2013-03-03 06:01:00,39.2,16.3,29.87,SSE,148,2.0,4.0,39,0.00,,---,0.00,VWS V14.01,2013-03-03 13:01:00,
2013-03-03 06:06:00,38.8,16.0,29.88,SSE,148,0.0,3.0,39,0.00,,---,0.00,VWS V14.01,2013-03-03 13:06:00,
2013-03-03 06:11:00,37.9,16.3,29.89,SSE,148,0.0,3.0,41,0.00,,---,0.00,VWS V14.01,2013-03-03 13:11:00,
2013-03-03 06:16:00,37.2,16.2,29.88,SSE,148,0.0,2.0,42,0.00,,---,0.00,VWS V14.01,2013-03-03 13:16:00,
2013-03-03 06:21:00,36.3,16.5,29.90,SSE,148,0.0,0.0,44,0.00,,---,0.00,VWS V14.01,2013-03-03 13:21:00,
2013-03-03 06:26:00,35.5,16.3,29.89,SSE,147,1.0,1.0,45,0.00,,---,0.00,VWS V14.01,2013-03-03 13:26:00,
2013-03-03 06:31:00,35.7,16.5,29.88,SSE,147,0.0,5.0,45,0.00,,---,0.00,VWS V14.01,2013-03-03 13:31:00,
2013-03-03 06:36:00,35.1,16.4,29.89,SSE,147,7.0,7.0,46,0.00,,---,0.00,VWS V14.01,2013-03-03 13:36:00,
2013-03-03 06:41:00,35.0,15.8,29.89,SE,146,0.0,0.0,45,0.00,,---,0.00,VWS V14.01,2013-03-03 13:41:00,
2013-03-03 06:46:00,35.5,15.8,29.88,SSE,147,6.0,7.0,44,0.00,,---,0.00,VWS V14.01,2013-03-03 13:46:00,
2013-03-03 06:51:00,37.0,15.5,29.86,SSE,149,2.0,2.0,41,0.00,,---,0.00,VWS V14.01,2013-03-03 13:51:00,
2013-03-03 06:56:00,39.1,16.2,29.84,SSE,149,0.0,1.0,39,0.00,,---,0.00,VWS V14.01,2013-03-03 13:56:00,
2013-03-03 07:01:00,40.4,15.6,29.84,SSE,149,4.0,5.0,36,0.00,,---,0.00,VWS V14.01,2013-03-03 14:01:00,
2013-03-03 07:06:00,41.9,16.3,29.82,SSE,148,5.0,7.0,35,0.00,,---,0.00,VWS V14.01,2013-03-03 14:06:00,
2013-03-03 07:11:00,44.0,16.0,29.81,SSE,159,12.0,12.0,32,0.00,,---,0.00,VWS V14.01,2013-03-03 14:11:00,
2013-03-03 07:16:00,45.1,17.0,29.82,South,178,1.0,2.0,32,0.00,,---,0.00,VWS V14.01,2013-03-03 14:16:00,
2013-03-03 07:21:00,44.8,17.5,29.82,South,178,1.0,1.0,33,0.00,,---,0.00,VWS V14.01,2013-03-03 14:21:00,
2013-03-03 07:26:00,45.0,18.3,29.83,South,178,5.0,6.0,34,0.00,,---,0.00,VWS V14.01,2013-03-03 14:26:00,
2013-03-03 07:31:00,44.2,17.6,29.84,South,178,0.0,0.0,34,0.00,,---,0.00,VWS V14.01,2013-03-03 14:31:00,
2013-03-03 07:36:00,44.2,17.6,29.84,South,178,0.0,1.0,34,0.00,,---,0.00,VWS V14.01,2013-03-03 14:36:00,
2013-03-03 07:41:00,44.4,17.8,29.83,South,178,0.0,0.0,34,0.00,,---,0.00,VWS V14.01,2013-03-03 14:41:00,
2013-03-03 07:46:00,45.4,18.0,29.83,South,178,4.0,5.0,33,0.00,,---,0.00,VWS V14.01,2013-03-03 14:46:00,
2013-03-03 07:51:00,46.3,18.1,29.82,South,178,5.0,5.0,32,0.00,,---,0.00,VWS V14.01,2013-03-03 14:51:00,
2013-03-03 07:56:00,46.3,17.3,29.80,ESE,121,3.0,6.0,31,0.00,,---,0.00,VWS V14.01,2013-03-03 14:56:00,
2013-03-03 08:01:00,47.0,18.7,29.82,SE,126,0.0,0.0,32,0.00,,---,0.00,VWS V14.01,2013-03-03 15:01:00,
2013-03-03 08:06:00,47.8,17.9,29.80,SE,126,4.0,5.0,30,0.00,,---,0.00,VWS V14.01,2013-03-03 15:06:00,
2013-03-03 08:11:00,47.1,16.5,29.82,SE,125,0.0,2.0,29,0.00,,---,0.00,VWS V14.01,2013-03-03 15:11:00,
2013-03-03 08:16:00,46.6,17.6,29.81,SE,125,4.0,6.0,31,0.00,,---,0.00,VWS V14.01,2013-03-03 15:16:00,
2013-03-03 08:21:00,47.0,17.2,29.81,SE,126,0.0,1.0,30,0.00,,---,0.00,VWS V14.01,2013-03-03 15:21:00,
2013-03-03 08:26:00,47.0,17.2,29.82,SE,130,2.0,2.0,30,0.00,,---,0.00,VWS V14.01,2013-03-03 15:26:00,
2013-03-03 08:31:00,47.2,17.4,29.82,SE,130,6.0,8.0,30,0.00,,---,0.00,VWS V14.01,2013-03-03 15:31:00,
2013-03-03 08:36:00,47.3,17.5,29.81,SE,130,2.0,4.0,30,0.00,,---,0.00,VWS V14.01,2013-03-03 15:36:00,
2013-03-03 08:41:00,47.3,17.5,29.81,SE,130,5.0,5.0,30,0.00,,---,0.00,VWS V14.01,2013-03-03 15:41:00,
2013-03-03 08:46:00,47.2,17.4,29.81,SE,130,6.0,7.0,30,0.00,,---,0.00,VWS V14.01,2013-03-03 15:46:00,
2013-03-03 08:51:00,47.4,19.0,29.81,SE,130,0.0,0.0,32,0.00,,---,0.00,VWS V14.01,2013-03-03 15:51:00,
2013-03-03 08:56:00,47.4,18.3,29.80,SE,130,0.0,1.0,31,0.00,,---,0.00,VWS V14.01,2013-03-03 15:56:00,
2013-03-03 09:01:00,47.8,18.6,29.79,SE,130,2.0,2.0,31,0.00,,---,0.00,VWS V14.01,2013-03-03 16:01:00,
2013-03-03 09:07:00,48.2,19.0,29.80,SE,130,0.0,1.0,31,0.00,,---,0.00,VWS V14.01,2013-03-03 16:07:00,
2013-03-03 09:12:00,48.8,19.5,29.78,SE,130,1.0,1.0,31,0.00,,---,0.00,VWS V14.01,2013-03-03 16:12:00,
2013-03-03 09:17:00,49.4,19.3,29.79,SE,130,2.0,3.0,30,0.00,,---,0.00,VWS V14.01,2013-03-03 16:17:00,
2013-03-03 09:22:00,49.6,19.5,29.79,SE,130,1.0,2.0,30,0.00,,---,0.00,VWS V14.01,2013-03-03 16:22:00,
2013-03-03 09:27:00,49.3,21.4,29.78,SE,130,7.0,7.0,33,0.00,,---,0.00,VWS V14.01,2013-03-03 16:27:00,
2013-03-03 09:32:00,48.9,18.9,29.78,SE,132,1.0,6.0,30,0.00,,---,0.00,VWS V14.01,2013-03-03 16:32:00,
2013-03-03 09:37:00,49.1,19.8,29.78,SE,132,0.0,0.0,31,0.00,,---,0.00,VWS V14.01,2013-03-03 16:37:00,
2013-03-03 09:42:00,50.1,19.1,29.78,SE,132,0.0,0.0,29,0.00,,---,0.00,VWS V14.01,2013-03-03 16:42:00,
2013-03-03 09:47:00,51.2,18.4,29.77,SE,132,0.0,0.0,27,0.00,,---,0.00,VWS V14.01,2013-03-03 16:47:00,
2013-03-03 09:52:00,51.1,20.0,29.76,SE,132,1.0,2.0,29,0.00,,---,0.00,VWS V14.01,2013-03-03 16:52:00,
2013-03-03 09:57:00,50.9,19.0,29.76,SE,132,2.0,5.0,28,0.00,,---,0.00,VWS V14.01,2013-03-03 16:57:00,
2013-03-03 10:02:00,50.4,19.4,29.77,SE,132,1.0,2.0,29,0.00,,---,0.00,VWS V14.01,2013-03-03 17:02:00,
2013-03-03 10:07:00,50.3,18.5,29.78,SE,132,1.0,4.0,28,0.00,,---,0.00,VWS V14.01,2013-03-03 17:07:00,
2013-03-03 10:12:00,50.5,16.9,29.77,SE,132,1.0,2.0,26,0.00,,---,0.00,VWS V14.01,2013-03-03 17:12:00,
2013-03-03 10:17:00,50.7,19.6,29.78,SE,132,4.0,4.0,29,0.00,,---,0.00,VWS V14.01,2013-03-03 17:17:00,
2013-03-03 10:22:00,50.7,18.0,29.78,SE,134,4.0,7.0,27,0.00,,---,0.00,VWS V14.01,2013-03-03 17:22:00,
2013-03-03 10:27:00,50.9,17.2,29.77,SE,144,4.0,10.0,26,0.00,,---,0.00,VWS V14.01,2013-03-03 17:27:00,
2013-03-03 10:32:00,51.0,19.1,29.78,South,179,5.0,8.0,28,0.00,,---,0.00,VWS V14.01,2013-03-03 17:32:00,
2013-03-03 10:37:00,51.2,18.4,29.78,SSW,211,9.0,10.0,27,0.00,,---,0.00,VWS V14.01,2013-03-03 17:37:00,
2013-03-03 10:42:00,50.9,19.8,29.78,SSW,212,2.0,8.0,29,0.00,,---,0.00,VWS V14.01,2013-03-03 17:42:00,
2013-03-03 10:47:00,50.6,18.7,29.78,SSW,212,2.0,7.0,28,0.00,,---,0.00,VWS V14.01,2013-03-03 17:47:00,
2013-03-03 10:52:00,50.4,18.5,29.76,SSW,211,0.0,1.0,28,0.00,,---,0.00,VWS V14.01,2013-03-03 17:52:00,
2013-03-03 10:57:00,50.8,18.0,29.76,SSW,211,0.0,4.0,27,0.00,,---,0.00,VWS V14.01,2013-03-03 17:57:00,
2013-03-03 11:02:00,51.3,18.5,29.76,SSW,212,0.0,0.0,27,0.00,,---,0.00,VWS V14.01,2013-03-03 18:02:00,
2013-03-03 11:07:00,51.7,17.9,29.74,SSW,212,0.0,1.0,26,0.00,,---,0.00,VWS V14.01,2013-03-03 18:07:00,
2013-03-03 11:12:00,52.2,18.4,29.74,SSW,211,0.0,1.0,26,0.00,,---,0.00,VWS V14.01,2013-03-03 18:12:00,
2013-03-03 11:17:00,52.9,19.0,29.72,SSW,212,0.0,2.0,26,0.00,,---,0.00,VWS V14.01,2013-03-03 18:17:00,
2013-03-03 11:22:00,52.9,19.9,29.72,SSW,211,0.0,0.0,27,0.00,,---,0.00,VWS V14.01,2013-03-03 18:22:00,
2013-03-03 11:27:00,52.5,19.5,29.71,SSW,211,0.0,1.0,27,0.00,,---,0.00,VWS V14.01,2013-03-03 18:27:00,
2013-03-03 11:32:00,52.9,21.5,29.71,SSW,211,0.0,0.0,29,0.00,,---,0.00,VWS V14.01,2013-03-03 18:32:00,
2013-03-03 11:37:00,53.0,21.6,29.70,SSW,212,0.0,1.0,29,0.00,,---,0.00,VWS V14.01,2013-03-03 18:37:00,
2013-03-03 11:42:00,53.0,23.2,29.70,SSW,212,8.0,10.0,31,0.00,,---,0.00,VWS V14.01,2013-03-03 18:42:00,
2013-03-03 11:47:00,52.1,22.4,29.71,SSW,212,0.0,2.0,31,0.00,,---,0.00,VWS V14.01,2013-03-03 18:47:00,
2013-03-03 11:52:00,52.0,23.8,29.70,SSW,212,0.0,1.0,33,0.00,,---,0.00,VWS V14.01,2013-03-03 18:52:00,
2013-03-03 11:57:00,50.9,19.8,29.71,SW,214,5.0,9.0,29,0.00,,---,0.00,VWS V14.01,2013-03-03 18:57:00,
2013-03-03 12:02:00,50.0,20.6,29.73,SW,217,6.0,8.0,31,0.00,,---,0.00,VWS V14.01,2013-03-03 19:02:00,
2013-03-03 12:07:00,50.0,20.6,29.69,SW,225,14.0,14.0,31,0.00,,---,0.00,VWS V14.01,2013-03-03 19:07:00,
2013-03-03 12:12:00,50.7,18.8,29.68,SW,219,5.0,15.0,28,0.00,,---,0.00,VWS V14.01,2013-03-03 19:12:00,
2013-03-03 12:17:00,51.5,20.3,29.68,SW,221,6.0,6.0,29,0.00,,---,0.00,VWS V14.01,2013-03-03 19:17:00,
2013-03-03 12:22:00,51.8,19.8,29.68,SW,222,4.0,7.0,28,0.00,,---,0.00,VWS V14.01,2013-03-03 19:22:00,
2013-03-03 12:27:00,52.3,21.0,29.66,SW,222,1.0,6.0,29,0.00,,---,0.00,VWS V14.01,2013-03-03 19:27:00,
2013-03-03 12:32:00,51.8,21.4,29.66,SW,229,5.0,9.0,30,0.00,,---,0.00,VWS V14.01,2013-03-03 19:32:00,
2013-03-03 12:37:00,51.6,22.7,29.66,SW,230,5.0,11.0,32,0.00,,---,0.00,VWS V14.01,2013-03-03 19:37:00,
2013-03-03 12:42:00,51.1,21.5,29.66,WSW,248,6.0,7.0,31,0.00,,---,0.00,VWS V14.01,2013-03-03 19:42:00,
2013-03-03 12:47:00,51.5,21.9,29.66,WSW,248,10.0,10.0,31,0.00,,---,0.00,VWS V14.01,2013-03-03 19:47:00,
2013-03-03 12:52:00,52.4,20.3,29.64,WSW,248,8.0,9.0,28,0.00,,---,0.00,VWS V14.01,2013-03-03 19:52:00,
2013-03-03 12:57:00,52.7,20.5,29.64,WSW,238,14.0,19.0,28,0.00,,---,0.00,VWS V14.01,2013-03-03 19:57:00,
2013-03-03 13:02:00,52.3,21.0,29.62,WSW,255,8.0,18.0,29,0.00,,---,0.00,VWS V14.01,2013-03-03 20:02:00,
2013-03-03 13:07:00,52.6,21.3,29.61,WSW,246,11.0,14.0,29,0.00,,---,0.00,VWS V14.01,2013-03-03 20:07:00,
2013-03-03 13:12:00,52.3,23.3,29.63,WSW,252,15.0,15.0,32,0.00,,---,0.00,VWS V14.01,2013-03-03 20:12:00,
2013-03-03 13:17:00,52.2,22.5,29.62,West,260,7.0,14.0,31,0.00,,---,0.00,VWS V14.01,2013-03-03 20:17:00,
2013-03-03 13:22:00,51.9,22.2,29.63,West,271,14.0,18.0,31,0.00,,---,0.00,VWS V14.01,2013-03-03 20:22:00,
2013-03-03 13:27:00,51.0,19.9,29.62,West,263,13.0,25.0,29,0.00,,---,0.00,VWS V14.01,2013-03-03 20:27:00,
2013-03-03 13:32:00,50.5,20.2,29.61,WSW,240,9.0,18.0,30,0.00,,---,0.00,VWS V14.01,2013-03-03 20:32:00,
2013-03-03 13:38:00,50.3,20.8,29.62,SW,235,7.0,16.0,31,0.00,,---,0.00,VWS V14.01,2013-03-03 20:38:00,
2013-03-03 13:43:00,50.7,21.2,29.60,WSW,240,10.0,19.0,31,0.00,,---,0.00,VWS V14.01,2013-03-03 20:43:00,
2013-03-03 13:48:00,51.2,20.0,29.59,West,264,21.0,22.0,29,0.00,,---,0.00,VWS V14.01,2013-03-03 20:48:00,
2013-03-03 13:53:00,51.2,21.6,29.58,WSW,246,12.0,27.0,31,0.00,,---,0.00,VWS V14.01,2013-03-03 20:53:00,
2013-03-03 13:58:00,51.2,23.1,29.58,WSW,254,16.0,16.0,33,0.00,,---,0.00,VWS V14.01,2013-03-03 20:58:00,
2013-03-03 14:03:00,51.0,20.7,29.59,West,263,15.0,19.0,30,0.00,,---,0.00,VWS V14.01,2013-03-03 21:03:00,
2013-03-03 14:08:00,50.9,22.1,29.61,WSW,244,9.0,15.0,32,0.00,,---,0.00,VWS V14.01,2013-03-03 21:08:00,
2013-03-03 14:13:00,50.6,21.1,29.61,West,274,8.0,19.0,31,0.00,,---,0.00,VWS V14.01,2013-03-03 21:13:00,
2013-03-03 14:18:00,50.6,21.1,29.61,SW,236,11.0,18.0,31,0.00,,---,0.00,VWS V14.01,2013-03-03 21:18:00,
2013-03-03 14:23:00,50.5,21.0,29.61,West,267,8.0,18.0,31,0.00,,---,0.00,VWS V14.01,2013-03-03 21:23:00,
2013-03-03 14:28:00,50.4,20.9,29.61,SW,234,8.0,11.0,31,0.00,,---,0.00,VWS V14.01,2013-03-03 21:28:00,
2013-03-03 14:33:00,50.5,20.2,29.62,WSW,256,6.0,11.0,30,0.00,,---,0.00,VWS V14.01,2013-03-03 21:33:00,
2013-03-03 14:38:00,50.6,21.9,29.63,WSW,252,9.0,13.0,32,0.00,,---,0.00,VWS V14.01,2013-03-03 21:38:00,
2013-03-03 14:43:00,50.1,22.1,29.63,SW,230,5.0,10.0,33,0.00,,---,0.00,VWS V14.01,2013-03-03 21:43:00,
2013-03-03 14:48:00,50.3,20.8,29.62,SW,231,3.0,5.0,31,0.00,,---,0.00,VWS V14.01,2013-03-03 21:48:00,
2013-03-03 14:53:00,50.5,21.0,29.62,SW,231,0.0,5.0,31,0.00,,---,0.00,VWS V14.01,2013-03-03 21:53:00,
2013-03-03 14:58:00,50.6,21.1,29.63,SW,224,0.0,5.0,31,0.00,,---,0.00,VWS V14.01,2013-03-03 21:58:00,
2013-03-03 15:03:00,50.6,21.9,29.62,SW,225,2.0,7.0,32,0.00,,---,0.00,VWS V14.01,2013-03-03 22:03:00,
2013-03-03 15:08:00,50.4,21.7,29.59,SSW,209,6.0,7.0,32,0.00,,---,0.00,VWS V14.01,2013-03-03 22:08:00,
2013-03-03 15:13:00,50.4,21.7,29.59,SSW,200,2.0,8.0,32,0.00,,---,0.00,VWS V14.01,2013-03-03 22:13:00,
2013-03-03 15:18:00,50.6,21.9,29.59,SSW,199,0.0,7.0,32,0.00,,---,0.00,VWS V14.01,2013-03-03 22:18:00,
2013-03-03 15:23:00,51.2,22.4,29.60,SSW,199,1.0,1.0,32,0.00,,---,0.00,VWS V14.01,2013-03-03 22:23:00,
2013-03-03 15:28:00,52.2,22.5,29.58,SW,219,6.0,9.0,31,0.00,,---,0.00,VWS V14.01,2013-03-03 22:28:00,
2013-03-03 15:33:00,52.9,22.3,29.58,SW,221,5.0,7.0,30,0.00,,---,0.00,VWS V14.01,2013-03-03 22:33:00,
2013-03-03 15:38:00,53.7,23.0,29.57,ENE,68,7.0,9.0,30,0.00,,---,0.00,VWS V14.01,2013-03-03 22:38:00,
2013-03-03 15:43:00,53.2,21.8,29.59,WNW,294,5.0,12.0,29,0.00,,---,0.00,VWS V14.01,2013-03-03 22:43:00,
2013-03-03 15:48:00,52.6,22.9,29.59,West,279,6.0,8.0,31,0.00,,---,0.00,VWS V14.01,2013-03-03 22:48:00,
2013-03-03 15:53:00,52.1,22.4,29.59,NW,317,10.0,14.0,31,0.00,,---,0.00,VWS V14.01,2013-03-03 22:53:00,
2013-03-03 15:58:00,51.4,23.3,29.61,NW,306,4.0,12.0,33,0.00,,---,0.00,VWS V14.01,2013-03-03 22:58:00,
2013-03-03 16:03:00,51.9,23.7,29.60,NW,304,6.0,16.0,33,0.00,,---,0.00,VWS V14.01,2013-03-03 23:03:00,
2013-03-03 16:08:00,51.5,21.9,29.59,NW,309,6.0,15.0,31,0.00,,---,0.00,VWS V14.01,2013-03-03 23:08:00,
2013-03-03 16:13:00,51.6,22.7,29.59,ENE,74,0.0,4.0,32,0.00,,---,0.00,VWS V14.01,2013-03-03 23:13:00,
2013-03-03 16:19:00,51.9,24.4,29.59,WNW,302,6.0,9.0,34,0.00,,---,0.00,VWS V14.01,2013-03-03 23:19:00,
2013-03-03 16:24:00,51.5,23.4,29.59,NW,311,5.0,9.0,33,0.00,,---,0.00,VWS V14.01,2013-03-03 23:24:00,
2013-03-03 16:28:00,51.0,23.6,29.58,NNW,336,8.0,15.0,34,0.00,,---,0.00,VWS V14.01,2013-03-03 23:28:00,
2013-03-03 16:33:00,50.5,23.9,29.58,WNW,294,4.0,11.0,35,0.00,,---,0.00,VWS V14.01,2013-03-03 23:33:00,
2013-03-03 16:39:00,50.5,23.2,29.58,NW,321,0.0,4.0,34,0.00,,---,0.00,VWS V14.01,2013-03-03 23:39:00,
2013-03-03 16:44:00,50.7,24.1,29.57,NW,325,6.0,9.0,35,0.00,,---,0.00,VWS V14.01,2013-03-03 23:44:00,
2013-03-03 16:49:00,50.0,24.8,29.59,NNW,341,5.0,8.0,37,0.00,,---,0.00,VWS V14.01,2013-03-03 23:49:00,
2013-03-03 16:54:00,49.6,23.8,29.59,NNW,329,5.0,12.0,36,0.00,,---,0.00,VWS V14.01,2013-03-03 23:54:00,
2013-03-03 16:59:00,49.6,25.0,29.59,NW,307,10.0,12.0,38,0.00,,---,0.00,VWS V14.01,2013-03-03 23:59:00,
2013-03-03 17:04:00,49.1,24.6,29.59,NW,306,4.0,13.0,38,0.00,,---,0.00,VWS V14.01,2013-03-04 00:04:00,
2013-03-03 17:09:00,49.1,24.0,29.59,NNW,340,7.0,10.0,37,0.00,,---,0.00,VWS V14.01,2013-03-04 00:09:00,
2013-03-03 17:14:00,48.8,24.3,29.59,NNW,337,0.0,1.0,38,0.00,,---,0.00,VWS V14.01,2013-03-04 00:14:00,
2013-03-03 17:19:00,48.1,24.3,29.61,NW,323,5.0,8.0,39,0.00,,---,0.00,VWS V14.01,2013-03-04 00:19:00,
2013-03-03 17:24:00,47.2,25.9,29.61,NW,324,4.0,8.0,43,0.00,,---,0.00,VWS V14.01,2013-03-04 00:24:00,
2013-03-03 17:29:00,46.7,25.4,29.61,NW,323,6.0,7.0,43,0.00,,---,0.00,VWS V14.01,2013-03-04 00:29:00,
2013-03-03 17:34:00,46.2,25.0,29.63,NNW,338,6.0,11.0,43,0.00,,---,0.00,VWS V14.01,2013-03-04 00:34:00,
2013-03-03 17:39:00,45.5,25.4,29.64,NNW,330,2.0,9.0,45,0.00,,---,0.00,VWS V14.01,2013-03-04 00:39:00,
2013-03-03 17:44:00,45.1,25.0,29.64,NNW,342,4.0,9.0,45,0.00,,---,0.00,VWS V14.01,2013-03-04 00:44:00,
2013-03-03 17:49:00,44.7,24.7,29.64,NW,318,2.0,7.0,45,0.00,,---,0.00,VWS V14.01,2013-03-04 00:49:00,
2013-03-03 17:54:00,44.4,24.4,29.64,West,277,5.0,7.0,45,0.00,,---,0.00,VWS V14.01,2013-03-04 00:54:00,
2013-03-03 17:59:00,44.1,23.6,29.66,NNW,336,0.0,12.0,44,0.00,,---,0.00,VWS V14.01,2013-03-04 00:59:00,
2013-03-03 18:04:00,44.1,23.0,29.66,NNW,331,8.0,9.0,43,0.00,,---,0.00,VWS V14.01,2013-03-04 01:04:00,
2013-03-03 18:09:00,43.8,23.3,29.63,NNW,338,8.0,11.0,44,0.00,,---,0.00,VWS V14.01,2013-03-04 01:09:00,
2013-03-03 18:14:00,43.7,23.8,29.63,WSW,252,1.0,8.0,45,0.00,,---,0.00,VWS V14.01,2013-03-04 01:14:00,
2013-03-03 18:19:00,43.0,24.2,29.65,WSW,253,6.0,7.0,47,0.00,,---,0.00,VWS V14.01,2013-03-04 01:19:00,
2013-03-03 18:24:00,43.0,23.1,29.65,WSW,254,1.0,5.0,45,0.00,,---,0.00,VWS V14.01,2013-03-04 01:24:00,
2013-03-03 18:29:00,43.4,23.5,29.65,WSW,253,5.0,5.0,45,0.00,,---,0.00,VWS V14.01,2013-03-04 01:29:00,
2013-03-03 18:34:00,44.0,24.0,29.63,WNW,284,4.0,8.0,45,0.00,,---,0.00,VWS V14.01,2013-03-04 01:34:00,
2013-03-03 18:39:00,44.0,24.0,29.63,WNW,301,9.0,9.0,45,0.00,,---,0.00,VWS V14.01,2013-03-04 01:39:00,
2013-03-03 18:44:00,44.3,22.7,29.64,NW,311,10.0,13.0,42,0.00,,---,0.00,VWS V14.01,2013-03-04 01:44:00,
2013-03-03 18:49:00,44.6,22.9,29.64,WNW,288,9.0,14.0,42,0.00,,---,0.00,VWS V14.01,2013-03-04 01:49:00,
2013-03-03 18:54:00,44.0,23.5,29.64,NW,318,6.0,12.0,44,0.00,,---,0.00,VWS V14.01,2013-03-04 01:54:00,
2013-03-03 18:59:00,43.8,23.3,29.64,NW,315,10.0,14.0,44,0.00,,---,0.00,VWS V14.01,2013-03-04 01:59:00,
2013-03-03 19:04:00,43.8,23.9,29.64,NW,318,7.0,13.0,45,0.00,,---,0.00,VWS V14.01,2013-03-04 02:04:00,
2013-03-03 19:09:00,43.6,23.7,29.59,West,280,8.0,15.0,45,0.00,,---,0.00,VWS V14.01,2013-03-04 02:09:00,
2013-03-03 19:14:00,43.6,24.2,29.59,WNW,296,14.0,14.0,46,0.00,,---,0.00,VWS V14.01,2013-03-04 02:14:00,
2013-03-03 19:19:00,43.3,23.9,29.61,NW,307,10.0,15.0,46,0.00,,---,0.00,VWS V14.01,2013-03-04 02:19:00,
2013-03-03 19:24:00,43.4,24.0,29.61,NW,311,8.0,19.0,46,0.00,,---,0.00,VWS V14.01,2013-03-04 02:24:00,
2013-03-03 19:29:00,43.4,23.5,29.62,WNW,292,7.0,12.0,45,0.00,,---,0.00,VWS V14.01,2013-03-04 02:29:00,
2013-03-03 19:34:00,43.0,24.2,29.62,NW,305,10.0,13.0,47,0.00,,---,0.00,VWS V14.01,2013-03-04 02:34:00,
2013-03-03 19:39:00,42.9,24.1,29.62,WNW,291,7.0,13.0,47,0.00,,---,0.00,VWS V14.01,2013-03-04 02:39:00,
2013-03-03 19:44:00,42.9,23.6,29.62,WNW,286,12.0,14.0,46,0.00,,---,0.00,VWS V14.01,2013-03-04 02:44:00,
2013-03-03 19:49:00,42.9,24.1,29.62,WNW,295,5.0,12.0,47,0.00,,---,0.00,VWS V14.01,2013-03-04 02:49:00,
2013-03-03 19:54:00,42.5,23.7,29.62,WNW,292,4.0,6.0,47,0.00,,---,0.00,VWS V14.01,2013-03-04 02:54:00,
2013-03-03 19:59:00,43.0,24.2,29.62,West,261,8.0,13.0,47,0.00,,---,0.00,VWS V14.01,2013-03-04 02:59:00,
2013-03-03 20:04:00,43.1,24.3,29.60,WSW,257,13.0,14.0,47,0.00,,---,0.00,VWS V14.01,2013-03-04 03:04:00,
2013-03-03 20:09:00,42.8,24.5,29.60,WSW,248,12.0,15.0,48,0.00,,---,0.00,VWS V14.01,2013-03-04 03:09:00,
2013-03-03 20:14:00,42.9,24.1,29.60,West,264,12.0,19.0,47,0.00,,---,0.00,VWS V14.01,2013-03-04 03:14:00,
2013-03-03 20:19:00,42.7,24.9,29.60,SSW,200,11.0,18.0,49,0.00,,---,0.00,VWS V14.01,2013-03-04 03:19:00,
2013-03-03 20:24:00,41.9,24.6,29.60,West,267,8.0,24.0,50,0.00,,---,0.00,VWS V14.01,2013-03-04 03:24:00,
2013-03-03 20:30:00,41.6,25.3,29.60,WSW,246,16.0,16.0,52,0.00,,---,0.00,VWS V14.01,2013-03-04 03:30:00,
2013-03-03 20:35:00,41.6,25.3,29.60,SW,221,12.0,23.0,52,0.00,,---,0.00,VWS V14.01,2013-03-04 03:35:00,
2013-03-03 20:40:00,41.5,25.2,29.60,West,269,11.0,23.0,52,0.00,,---,0.00,VWS V14.01,2013-03-04 03:40:00,
2013-03-03 20:45:00,41.5,25.2,29.60,West,270,11.0,24.0,52,0.00,,---,0.00,VWS V14.01,2013-03-04 03:45:00,
2013-03-03 20:50:00,41.8,25.0,29.60,WSW,252,11.0,26.0,51,0.00,,---,0.00,VWS V14.01,2013-03-04 03:50:00,
2013-03-03 20:55:00,41.7,24.9,29.61,West,259,9.0,22.0,51,0.00,,---,0.00,VWS V14.01,2013-03-04 03:55:00,
2013-03-03 21:00:00,41.7,24.5,29.60,WSW,249,21.0,27.0,50,0.00,,---,0.00,VWS V14.01,2013-03-04 04:00:00,
2013-03-03 21:05:00,41.8,24.5,29.60,West,264,18.0,24.0,50,0.00,,---,0.00,VWS V14.01,2013-03-04 04:05:00,
2013-03-03 21:10:00,42.0,24.7,29.60,West,279,7.0,21.0,50,0.00,,---,0.00,VWS V14.01,2013-03-04 04:10:00,
2013-03-03 21:15:00,41.6,24.8,29.60,West,277,7.0,11.0,51,0.00,,---,0.00,VWS V14.01,2013-03-04 04:15:00,
2013-03-03 21:20:00,41.4,24.6,29.61,West,280,10.0,16.0,51,0.00,,---,0.00,VWS V14.01,2013-03-04 04:20:00,
2013-03-03 21:25:00,41.9,24.1,29.60,WSW,253,14.0,16.0,49,0.00,,---,0.00,VWS V14.01,2013-03-04 04:25:00,
2013-03-03 21:30:00,42.4,24.1,29.60,West,263,14.0,18.0,48,0.00,,---,0.00,VWS V14.01,2013-03-04 04:30:00,
2013-03-03 21:35:00,43.0,23.6,29.61,WNW,298,14.0,16.0,46,0.00,,---,0.00,VWS V14.01,2013-03-04 04:35:00,
2013-03-03 21:40:00,43.4,23.5,29.61,WNW,291,13.0,15.0,45,0.00,,---,0.00,VWS V14.01,2013-03-04 04:40:00,
2013-03-03 21:45:00,43.6,23.1,29.59,WSW,245,7.0,18.0,44,0.00,,---,0.00,VWS V14.01,2013-03-04 04:45:00,
2013-03-03 21:50:00,43.5,23.0,29.60,SW,227,10.0,13.0,44,0.00,,---,0.00,VWS V14.01,2013-03-04 04:50:00,
2013-03-03 21:55:00,43.8,22.8,29.58,WSW,248,4.0,12.0,43,0.00,,---,0.00,VWS V14.01,2013-03-04 04:55:00,